Regional Weather Roundup
Issued by NWS

Home | Current Version | Previous Version | Graphics & Text | Print | Product List | Glossary On
Versions: 1 2 3 4 5 6 7 8 9 10 11 12 13 14 15 16 17 18 19 20 21 22 23 24 25 26 27 28 29 30 31 32 33 34 35 36 37 38 39 40 41 42 43 44 45 46 47 48 49 50
000
ASUS43 KLMK 130002
RWRKY
KENTUCKY REGIONAL WEATHER ROUNDUP
NATIONAL WEATHER SERVICE LOUISVILLE KY
700 PM EST TUE DEC 12 2017

NOTE "FAIR" INDICATES FEW OR NO CLOUDS BELOW 12,000 FEET
WITH NO SIGNIFICANT WEATHER AND/OR OBSTRUCTIONS TO VISIBILITY.

KYZ001>023-026-027-061>063-070>075-130100-
WESTERN AND SOUTH CENTRAL KENTUCKY

CITY           SKY/WX    TMP DP  RH WIND       PRES   REMARKS
PADUCAH        CLEAR     33   9  36 W3        30.14S
HENDERSON      CLEAR     29  13  51 W6        30.13S WCI  23
OWENSBORO      CLEAR     27  13  55 NW7       30.12S WCI  19
HOPKINSVILLE   CLEAR     31   7  35 NW7       30.11R WCI  25
BOWLING GREEN  CLEAR     31   9  39 NW7       30.10R WCI  24
GLASGOW        NOT AVBL
$$

KYZ024-025-028>034-038-045-046-053-130100-
NORTH CENTRAL KENTUCKY

CITY           SKY/WX    TMP DP  RH WIND       PRES   REMARKS
LOUISVILLE/SDF CLEAR     28   7  41 W12       30.07R WCI  18
LOUISVILLE/LOU CLEAR     28   8  43 W14       30.07R WCI  17
FORT KNOX      CLEAR     27   7  42 W10       30.04S WCI  17
$$

KYZ035>037-039>044-047>052-055>060-089>105-130100-
NORTHEAST KENTUCKY

CITY           SKY/WX    TMP DP  RH WIND       PRES   REMARKS
LEXINGTON      CLEAR     25   7  46 W12       30.01R WCI  14
COVINGTON      MOCLDY    24   9  52 W14       29.99R WCI  12
FRANKFORT      CLEAR     27   5  39 W9        30.02R WCI  18
$$

KYZ054-064>069-076>088-106>120-130100-
SOUTHEAST KENTUCKY

CITY           SKY/WX    TMP DP  RH WIND       PRES   REMARKS
JACKSON        PTCLDY    26   7  44 W9G21     29.94R WCI  17
LONDON         CLEAR     27   5  39 W10       29.99R WCI  17
SOMERSET       NOT AVBL
MIDDLESBORO    CLEAR     30   1  29 NW15G28   29.98R WCI  19
MONTICELLO     CLEAR     29   9  43 NW13      30.06R WCI  19
$$





USA.gov is the U.S. government's official web portal to all federal, state and local government web resources and services.